Location: ????????
(60.4333°N, 46.4710°E)
Time: 03:31:35
(UTC+00:00)

Cosmos 1869 - Pass Details

Date: 25 November 2020
Orbit: 514 x 567 km, 82.5° (Epoch: 19 January)

Event Time Altitude Azimuth Distance (km) Brightness Sun altitude
Rises 12:56:51 0° 166° (SSE) 2,728 7.1 -6.2°
Reaches altitude 10° 12:59:07 10° 157° (SSE) 1,846 6.1 -6.4°
Maximum altitude 13:02:49 34° 92° (E) 939 4.1 -6.8°
Drops below altitude 10° 13:06:34 10° 27° (NNE) 1,878 5.5 -7.2°
Enters shadow 13:08:12 - 20° (NNE) 2,504 6.2 -7.4°
